Weather in Kochetovka

Russia / Tambov Oblast     53°02′10″N   40°31′15″E
temp.,
°C
wind,
m/s
gust,
m/s
humid.,
%
clouds,
%
prec.,
mm/h
press.,
hPa
HPBL,
m
17 june, thu
thu1700:00+16n411945 0.0 1016240
03:00+15nne512910 0.0 1017300
06:00+15nne49870 0.0 1018253
09:00+19ne46740 0.0 1020493
12:00+22ne56660 0.0 10211303
15:00+22ne66600 0.0 10211373
18:00+21ne58710 0.0 1022568
21:00+16ne49750 0.0 1023152
18 june, fri
fri1800:00+14ne410805 0.0 1024181
03:00+13ne39820 0.0 1025164
06:00+14ene49840 0.0 1026257
09:00+19ene58670 0.0 1027621
12:00+21ene57551 0.0 10271421
15:00+22ene56555 0.0 10261613
18:00+21e46680 0.0 1026555
21:00+15ese34850 0.0 102758
19 june, sat
sat1900:00+13e34835 0.0 102865
03:00+12ese34885 0.0 102847
06:00+14e248471 0.0 1029121
09:00+19e34680 0.0 1028532
12:00+22ese45570 0.0 10281074
15:00+23se34520 0.0 10261117
18:00+22se24660 0.0 1025626
21:00+17se22770 0.0 102611
20 june, sun
sun2000:00+15ese22830 0.0 102611
03:00+13ese22850 0.0 102612
06:00+15e23840 0.0 1026107
09:00+21ese34690 0.0 1026484
12:00+24se34570 0.0 1025918
15:00+25se345328 0.0 10231113
18:00+25se2366100 0.0 1023793
21:00+20ese2276100 0.0 102311
21 june, mon
mon2100:00+18ese2283100 0.0 102313
03:00+17e2287100 0.0 102323
06:00+19e2487100 0.0 1023120
09:00+23ese347292 0.0 1023459
12:00+26ese34595 0.0 1022934
15:00+28ese225336 0.0 10211178
18:00+28ese126412 0.0 10201060
21:00+22ene227318 0.0 102111